Year,Month,Day,Hour,Minute,Value (Times are PST for temperature in C)
2017,03,30,00,00,6.30
2017,03,30,00,01,6.30
2017,03,30,00,02,6.30
2017,03,30,00,03,6.40
2017,03,30,00,04,6.30
2017,03,30,00,05,6.40
2017,03,30,00,06,6.40
2017,03,30,00,07,6.40
2017,03,30,00,08,6.40
2017,03,30,00,09,6.40
2017,03,30,00,10,6.40
2017,03,30,00,11,6.40
2017,03,30,00,12,6.40
2017,03,30,00,13,6.40
2017,03,30,00,14,6.40
2017,03,30,00,15,6.40
2017,03,30,00,16,6.40
2017,03,30,00,17,6.40
2017,03,30,00,18,6.40
2017,03,30,00,19,6.40
2017,03,30,00,20,6.40
2017,03,30,00,21,6.40
2017,03,30,00,22,6.40
2017,03,30,00,23,6.40
2017,03,30,00,24,6.40
2017,03,30,00,25,6.40
2017,03,30,00,26,6.40
2017,03,30,00,27,6.40
2017,03,30,00,28,6.40
2017,03,30,00,29,6.40
2017,03,30,00,30,6.40
2017,03,30,00,31,6.40
2017,03,30,00,32,6.40
2017,03,30,00,33,6.40
2017,03,30,00,34,6.40
2017,03,30,00,35,6.40
2017,03,30,00,36,6.40
2017,03,30,00,37,6.40
2017,03,30,00,38,6.40
2017,03,30,00,39,6.30
2017,03,30,00,40,6.30
2017,03,30,00,41,6.30
2017,03,30,00,42,6.30
2017,03,30,00,43,6.30
2017,03,30,00,44,6.30
2017,03,30,00,45,6.30
2017,03,30,00,46,6.30
2017,03,30,00,47,6.30
2017,03,30,00,48,6.30
2017,03,30,00,49,6.30
2017,03,30,00,50,6.30
2017,03,30,00,51,6.30
2017,03,30,00,52,6.30
2017,03,30,00,53,6.30
2017,03,30,00,54,6.30
2017,03,30,00,55,6.30
2017,03,30,00,56,6.30
2017,03,30,00,57,6.30
2017,03,30,00,58,6.30
2017,03,30,00,59,6.30
2017,03,30,01,00,6.30
2017,03,30,01,01,6.30
2017,03,30,01,02,6.30
2017,03,30,01,03,6.30
2017,03,30,01,04,6.30
2017,03,30,01,05,6.30
2017,03,30,01,06,6.30
2017,03,30,01,07,6.30
2017,03,30,01,08,6.30
2017,03,30,01,09,6.30
2017,03,30,01,10,6.30
2017,03,30,01,11,6.30
2017,03,30,01,12,6.30
2017,03,30,01,13,6.30
2017,03,30,01,14,6.30
2017,03,30,01,15,6.30
2017,03,30,01,16,6.30
2017,03,30,01,17,6.30
2017,03,30,01,18,6.30
2017,03,30,01,19,6.30
2017,03,30,01,20,6.30
2017,03,30,01,21,6.30
2017,03,30,01,22,6.30
2017,03,30,01,23,6.30
2017,03,30,01,24,6.30
2017,03,30,01,25,6.30
2017,03,30,01,26,6.30
2017,03,30,01,27,6.30
2017,03,30,01,28,6.30
2017,03,30,01,29,6.30
2017,03,30,01,30,6.30
2017,03,30,01,31,6.20
2017,03,30,01,32,6.20
2017,03,30,01,33,6.20
2017,03,30,01,34,6.20
2017,03,30,01,35,6.20
2017,03,30,01,36,6.20
2017,03,30,01,37,6.20
2017,03,30,01,38,6.20
2017,03,30,01,39,6.20
2017,03,30,01,40,6.20
2017,03,30,01,41,6.20
2017,03,30,01,42,6.20
2017,03,30,01,43,6.20
2017,03,30,01,44,6.20
2017,03,30,01,45,6.20
2017,03,30,01,46,6.10
2017,03,30,01,47,6.10
2017,03,30,01,48,6.10
2017,03,30,01,49,6.10
2017,03,30,01,50,6.10
2017,03,30,01,51,6.10
2017,03,30,01,52,6.10
2017,03,30,01,53,6.10
2017,03,30,01,54,6.10
2017,03,30,01,55,6.10
2017,03,30,01,56,6.00
2017,03,30,01,57,6.00
2017,03,30,01,58,6.00
2017,03,30,01,59,5.90
2017,03,30,02,00,5.90
2017,03,30,02,01,5.90
2017,03,30,02,02,5.90
2017,03,30,02,03,5.90
2017,03,30,02,04,5.90
2017,03,30,02,05,5.80
2017,03,30,02,06,5.80
2017,03,30,02,07,5.80
2017,03,30,02,08,5.80
2017,03,30,02,09,5.80
2017,03,30,02,10,5.70
2017,03,30,02,11,5.70
2017,03,30,02,12,5.70
2017,03,30,02,13,5.60
2017,03,30,02,14,5.60
2017,03,30,02,15,5.60
2017,03,30,02,16,5.50
2017,03,30,02,17,5.40
2017,03,30,02,18,5.40
2017,03,30,02,19,5.40
2017,03,30,02,20,5.40
2017,03,30,02,21,5.30
2017,03,30,02,22,5.30
2017,03,30,02,23,5.30
2017,03,30,02,24,5.30
2017,03,30,02,25,5.20
2017,03,30,02,26,5.20
2017,03,30,02,27,5.20
2017,03,30,02,28,5.20
2017,03,30,02,29,5.10
2017,03,30,02,30,5.10
2017,03,30,02,31,5.10
2017,03,30,02,32,5.00
2017,03,30,02,33,5.00
2017,03,30,02,34,4.90
2017,03,30,02,35,4.90
2017,03,30,02,36,4.90
2017,03,30,02,37,4.90
2017,03,30,02,38,4.90
2017,03,30,02,39,4.90
2017,03,30,02,40,4.80
2017,03,30,02,41,4.80
2017,03,30,02,42,4.80
2017,03,30,02,43,4.80
2017,03,30,02,44,4.80
2017,03,30,02,45,4.80
2017,03,30,02,46,4.80
2017,03,30,02,47,4.80
2017,03,30,02,48,4.70
2017,03,30,02,49,4.70
2017,03,30,02,50,4.70
2017,03,30,02,51,4.70
2017,03,30,02,52,4.70
2017,03,30,02,53,4.60
2017,03,30,02,54,4.60
2017,03,30,02,55,4.60
2017,03,30,02,56,4.60
2017,03,30,02,57,4.60
2017,03,30,02,58,4.50
2017,03,30,02,59,4.50
2017,03,30,03,00,4.50
2017,03,30,03,01,4.50
2017,03,30,03,02,4.50
2017,03,30,03,03,4.60
2017,03,30,03,04,4.60
2017,03,30,03,05,4.60
2017,03,30,03,06,4.60
2017,03,30,03,07,4.60
2017,03,30,03,08,4.60
2017,03,30,03,09,4.60
2017,03,30,03,10,4.60
2017,03,30,03,11,4.60
2017,03,30,03,12,4.50
2017,03,30,03,13,4.50
2017,03,30,03,14,4.50
2017,03,30,03,15,4.40
2017,03,30,03,16,4.40
2017,03,30,03,17,4.40
2017,03,30,03,18,4.40
2017,03,30,03,19,4.40
2017,03,30,03,20,4.40
2017,03,30,03,21,4.40
2017,03,30,03,22,4.40
2017,03,30,03,23,4.40
2017,03,30,03,24,4.40
2017,03,30,03,25,4.30
2017,03,30,03,26,4.30
2017,03,30,03,27,4.30
2017,03,30,03,28,4.20
2017,03,30,03,29,4.20
2017,03,30,03,30,4.10
2017,03,30,03,31,4.10
2017,03,30,03,32,4.10
2017,03,30,03,33,4.10
2017,03,30,03,34,4.10
2017,03,30,03,35,4.10
2017,03,30,03,36,4.10
2017,03,30,03,37,4.10
2017,03,30,03,38,4.00
2017,03,30,03,39,4.00
2017,03,30,03,40,4.00
2017,03,30,03,41,4.00
2017,03,30,03,42,4.00
2017,03,30,03,43,4.00
2017,03,30,03,44,4.00
2017,03,30,03,45,4.00
2017,03,30,03,46,3.90
2017,03,30,03,47,3.90
2017,03,30,03,48,3.80
2017,03,30,03,49,3.80
2017,03,30,03,50,3.80
2017,03,30,03,51,3.80
2017,03,30,03,52,3.80
2017,03,30,03,53,3.80
2017,03,30,03,54,3.80
2017,03,30,03,55,3.70
2017,03,30,03,56,3.70
2017,03,30,03,57,3.70
2017,03,30,03,58,3.70
2017,03,30,03,59,3.70
2017,03,30,04,00,3.70
2017,03,30,04,01,3.60
2017,03,30,04,02,3.60
2017,03,30,04,03,3.60
2017,03,30,04,04,3.50
2017,03,30,04,05,3.50
2017,03,30,04,06,3.50
2017,03,30,04,07,3.50
2017,03,30,04,08,3.40
2017,03,30,04,09,3.40
2017,03,30,04,10,3.40
2017,03,30,04,11,3.40
2017,03,30,04,12,3.30
2017,03,30,04,13,3.30
2017,03,30,04,14,3.30
2017,03,30,04,15,3.40
2017,03,30,04,16,3.50
2017,03,30,04,17,3.50
2017,03,30,04,18,3.60
2017,03,30,04,19,3.70
2017,03,30,04,20,3.70
2017,03,30,04,21,3.80
2017,03,30,04,22,3.80
2017,03,30,04,23,3.80
2017,03,30,04,24,3.80
2017,03,30,04,25,3.80
2017,03,30,04,26,3.80
2017,03,30,04,27,3.90
2017,03,30,04,28,3.90
2017,03,30,04,29,3.90
2017,03,30,04,30,3.90
2017,03,30,04,31,3.90
2017,03,30,04,32,3.80
2017,03,30,04,33,3.80
2017,03,30,04,34,3.80
2017,03,30,04,35,3.80
2017,03,30,04,36,3.80
2017,03,30,04,37,3.80
2017,03,30,04,38,3.80
2017,03,30,04,39,3.80
2017,03,30,04,40,3.80
2017,03,30,04,41,3.80
2017,03,30,04,42,3.80
2017,03,30,04,43,3.80
2017,03,30,04,44,3.90
2017,03,30,04,45,3.90
2017,03,30,04,46,3.90
2017,03,30,04,47,3.90
2017,03,30,04,48,3.90
2017,03,30,04,49,3.90
2017,03,30,04,50,3.90
2017,03,30,04,51,3.80
2017,03,30,04,52,3.80
2017,03,30,04,53,3.70
2017,03,30,04,54,3.70
2017,03,30,04,55,3.80
2017,03,30,04,56,3.80
2017,03,30,04,57,3.80
2017,03,30,04,58,3.80
2017,03,30,04,59,3.90
2017,03,30,05,00,3.90
2017,03,30,05,01,3.90
2017,03,30,05,02,3.90
2017,03,30,05,03,3.90
2017,03,30,05,04,3.90
2017,03,30,05,05,3.90
2017,03,30,05,06,4.00
2017,03,30,05,07,4.00
2017,03,30,05,08,4.00
2017,03,30,05,09,4.00
2017,03,30,05,10,4.00
2017,03,30,05,11,4.00
2017,03,30,05,12,3.90
2017,03,30,05,13,3.90
2017,03,30,05,14,3.90
2017,03,30,05,15,3.90
2017,03,30,05,16,3.80
2017,03,30,05,17,3.80
2017,03,30,05,18,3.80
2017,03,30,05,19,3.80
2017,03,30,05,20,3.80
2017,03,30,05,21,3.80
2017,03,30,05,22,3.80
2017,03,30,05,23,3.80
2017,03,30,05,24,3.80
2017,03,30,05,25,3.80
2017,03,30,05,26,3.80
2017,03,30,05,27,3.70
2017,03,30,05,28,3.70
2017,03,30,05,29,3.70
2017,03,30,05,30,3.70
2017,03,30,05,31,3.70
2017,03,30,05,32,3.70
2017,03,30,05,33,3.70
2017,03,30,05,34,3.70
2017,03,30,05,35,3.70
2017,03,30,05,36,3.70
2017,03,30,05,37,3.70
2017,03,30,05,38,3.60
2017,03,30,05,39,3.60
2017,03,30,05,40,3.60
2017,03,30,05,41,3.60
2017,03,30,05,42,3.60
2017,03,30,05,43,3.70
2017,03,30,05,44,3.70
2017,03,30,05,45,3.70
2017,03,30,05,46,3.70
2017,03,30,05,47,3.70
2017,03,30,05,48,3.70
2017,03,30,05,49,3.70
2017,03,30,05,50,3.70
2017,03,30,05,51,3.70
2017,03,30,05,52,3.80
2017,03,30,05,53,3.80
2017,03,30,05,54,3.70
2017,03,30,05,55,3.70
2017,03,30,05,56,3.70
2017,03,30,05,57,3.70
2017,03,30,05,58,3.70
2017,03,30,05,59,3.70
2017,03,30,06,00,3.70
2017,03,30,06,01,3.70
2017,03,30,06,02,3.60
2017,03,30,06,03,3.60
2017,03,30,06,04,3.60
2017,03,30,06,05,3.60
2017,03,30,06,06,3.60
2017,03,30,06,07,3.60
2017,03,30,06,08,3.50
2017,03,30,06,09,3.50
2017,03,30,06,10,3.50
2017,03,30,06,11,3.50
2017,03,30,06,12,3.50
2017,03,30,06,13,3.50
2017,03,30,06,14,3.50
2017,03,30,06,15,3.50
2017,03,30,06,16,3.50
2017,03,30,06,17,3.50
2017,03,30,06,18,3.50
2017,03,30,06,19,3.50
2017,03,30,06,20,3.50
2017,03,30,06,21,3.40
2017,03,30,06,22,3.40
2017,03,30,06,23,3.40
2017,03,30,06,24,3.40
2017,03,30,06,25,3.40
2017,03,30,06,26,3.40
2017,03,30,06,27,3.30
2017,03,30,06,28,3.30
2017,03,30,06,29,3.30
2017,03,30,06,30,3.20
2017,03,30,06,31,3.20
2017,03,30,06,32,3.10
2017,03,30,06,33,3.10
2017,03,30,06,34,3.10
2017,03,30,06,35,3.10
2017,03,30,06,36,3.00
2017,03,30,06,37,2.90
2017,03,30,06,38,2.90
2017,03,30,06,39,2.90
2017,03,30,06,40,2.80
2017,03,30,06,41,2.80
2017,03,30,06,42,2.80
2017,03,30,06,43,2.70
2017,03,30,06,44,2.70
2017,03,30,06,45,2.70
2017,03,30,06,46,2.60
2017,03,30,06,47,2.60
2017,03,30,06,48,2.50
2017,03,30,06,49,2.50
2017,03,30,06,50,2.40
2017,03,30,06,51,2.40
2017,03,30,06,52,2.30
2017,03,30,06,53,2.30
2017,03,30,06,54,2.30
2017,03,30,06,55,2.30
2017,03,30,06,56,2.30
2017,03,30,06,57,2.30
2017,03,30,06,58,2.30
2017,03,30,06,59,2.30
2017,03,30,07,00,2.20
2017,03,30,07,01,2.20
2017,03,30,07,02,2.20
2017,03,30,07,03,2.20
2017,03,30,07,04,2.20
2017,03,30,07,05,2.20
2017,03,30,07,06,2.20
2017,03,30,07,07,2.20
2017,03,30,07,08,2.20
2017,03,30,07,09,2.20
2017,03,30,07,10,2.20
2017,03,30,07,11,2.30
2017,03,30,07,12,2.30
2017,03,30,07,13,2.30
2017,03,30,07,14,2.30
2017,03,30,07,15,2.30
2017,03,30,07,16,2.30
2017,03,30,07,17,2.30
2017,03,30,07,18,2.30
2017,03,30,07,19,2.30
2017,03,30,07,20,2.40
2017,03,30,07,21,2.40
2017,03,30,07,22,2.40
2017,03,30,07,23,2.40
2017,03,30,07,24,2.40
2017,03,30,07,25,2.50
2017,03,30,07,26,2.50
2017,03,30,07,27,2.60
2017,03,30,07,28,2.60
2017,03,30,07,29,2.50
2017,03,30,07,30,2.50
2017,03,30,07,31,2.50
2017,03,30,07,32,2.50
2017,03,30,07,33,2.50
2017,03,30,07,34,2.50
2017,03,30,07,35,2.50
2017,03,30,07,36,2.50
2017,03,30,07,37,2.50
2017,03,30,07,38,2.60
2017,03,30,07,39,2.60
2017,03,30,07,40,2.60
2017,03,30,07,41,2.60
2017,03,30,07,42,2.60
2017,03,30,07,43,2.60
2017,03,30,07,44,2.60
2017,03,30,07,45,2.70
2017,03,30,07,46,2.70
2017,03,30,07,47,2.70
2017,03,30,07,48,2.70
2017,03,30,07,49,2.70
2017,03,30,07,50,2.70
2017,03,30,07,51,2.70
2017,03,30,07,52,2.70
2017,03,30,07,53,2.70
2017,03,30,07,54,2.70
2017,03,30,07,55,2.70
2017,03,30,07,56,2.70
2017,03,30,07,57,2.80
2017,03,30,07,58,2.80
2017,03,30,07,59,2.80
2017,03,30,08,00,2.90
2017,03,30,08,01,2.90
2017,03,30,08,02,3.00
2017,03,30,08,03,3.10
2017,03,30,08,04,3.10
2017,03,30,08,05,3.10
2017,03,30,08,06,3.20
2017,03,30,08,07,3.20
2017,03,30,08,08,3.20
2017,03,30,08,09,3.30
2017,03,30,08,10,3.30
2017,03,30,08,11,3.30
2017,03,30,08,12,3.30
2017,03,30,08,13,3.40
2017,03,30,08,14,3.40
2017,03,30,08,15,3.50
2017,03,30,08,16,3.50
2017,03,30,08,17,3.60
2017,03,30,08,18,3.60
2017,03,30,08,19,3.70
2017,03,30,08,20,3.80
2017,03,30,08,21,3.90
2017,03,30,08,22,3.90
2017,03,30,08,23,4.00
2017,03,30,08,24,4.10
2017,03,30,08,25,4.10
2017,03,30,08,26,4.20
2017,03,30,08,27,4.20
2017,03,30,08,28,4.30
2017,03,30,08,29,4.40
2017,03,30,08,30,4.50
2017,03,30,08,31,4.60
2017,03,30,08,32,4.70
2017,03,30,08,33,4.70
2017,03,30,08,34,4.80
2017,03,30,08,35,4.80
2017,03,30,08,36,4.80
2017,03,30,08,37,4.90
2017,03,30,08,38,4.90
2017,03,30,08,39,5.00
2017,03,30,08,40,5.10
2017,03,30,08,41,5.10
2017,03,30,08,42,5.10
2017,03,30,08,43,5.10
2017,03,30,08,44,5.20
2017,03,30,08,45,5.20
2017,03,30,08,46,5.20
2017,03,30,08,47,5.20
2017,03,30,08,48,5.20
2017,03,30,08,49,5.20
2017,03,30,08,50,5.20
2017,03,30,08,51,5.20
2017,03,30,08,52,5.20
2017,03,30,08,53,5.20
2017,03,30,08,54,5.10
2017,03,30,08,55,5.20
2017,03,30,08,56,5.20
2017,03,30,08,57,5.30
2017,03,30,08,58,5.30
2017,03,30,08,59,5.30
2017,03,30,09,00,5.20
2017,03,30,09,01,5.20
2017,03,30,09,02,5.30
2017,03,30,09,03,5.30
2017,03,30,09,04,5.40
2017,03,30,09,05,5.50
2017,03,30,09,06,5.50
2017,03,30,09,07,5.50
2017,03,30,09,08,5.50
2017,03,30,09,09,5.50
2017,03,30,09,10,5.60
2017,03,30,09,11,5.50
2017,03,30,09,12,5.50
2017,03,30,09,13,5.50
2017,03,30,09,14,5.50
2017,03,30,09,15,5.60
2017,03,30,09,16,5.60
2017,03,30,09,17,5.70
2017,03,30,09,18,5.70
2017,03,30,09,19,5.70
2017,03,30,09,20,5.70
2017,03,30,09,21,5.70
2017,03,30,09,22,5.80
2017,03,30,09,23,5.80
2017,03,30,09,24,5.80
2017,03,30,09,25,5.90
2017,03,30,09,26,5.90
2017,03,30,09,27,6.00
2017,03,30,09,28,6.10
2017,03,30,09,29,6.10
2017,03,30,09,30,6.20
2017,03,30,09,31,6.30
2017,03,30,09,32,6.30
2017,03,30,09,33,6.40
2017,03,30,09,34,6.40
2017,03,30,09,35,6.50
2017,03,30,09,36,6.60
2017,03,30,09,37,6.70
2017,03,30,09,38,6.70
2017,03,30,09,39,6.70
2017,03,30,09,40,6.70
2017,03,30,09,41,6.70
2017,03,30,09,42,6.70
2017,03,30,09,43,6.80
2017,03,30,09,44,6.80
2017,03,30,09,45,6.80
2017,03,30,09,46,6.80
2017,03,30,09,47,6.80
2017,03,30,09,48,6.80
2017,03,30,09,49,6.90
2017,03,30,09,50,7.00
2017,03,30,09,51,7.10
2017,03,30,09,52,7.20
2017,03,30,09,53,7.30
2017,03,30,09,54,7.30
2017,03,30,09,55,7.40
2017,03,30,09,56,7.50
2017,03,30,09,57,7.60
2017,03,30,09,58,7.70
2017,03,30,09,59,7.70
2017,03,30,10,00,7.80
2017,03,30,10,01,7.80
2017,03,30,10,02,7.90
2017,03,30,10,03,8.00
2017,03,30,10,04,8.10
2017,03,30,10,05,8.10
2017,03,30,10,06,8.20
2017,03,30,10,07,8.20
2017,03,30,10,08,8.30
2017,03,30,10,09,8.40
2017,03,30,10,10,8.40
2017,03,30,10,11,8.50
2017,03,30,10,12,8.60
2017,03,30,10,13,8.70
2017,03,30,10,14,8.70
2017,03,30,10,15,8.70
2017,03,30,10,16,8.80
2017,03,30,10,17,8.90
2017,03,30,10,18,8.90
2017,03,30,10,19,9.00
2017,03,30,10,20,9.10
2017,03,30,10,21,9.10
2017,03,30,10,22,9.20
2017,03,30,10,23,9.20
2017,03,30,10,24,9.20
2017,03,30,10,25,9.20
2017,03,30,10,26,9.30
2017,03,30,10,27,9.30
2017,03,30,10,28,9.40
2017,03,30,10,29,9.50
2017,03,30,10,30,9.60
2017,03,30,10,31,9.70
2017,03,30,10,32,9.80
2017,03,30,10,33,9.90
2017,03,30,10,34,10.00
2017,03,30,10,35,10.00
2017,03,30,10,36,10.00
2017,03,30,10,37,10.00
2017,03,30,10,38,10.00
2017,03,30,10,39,10.00
2017,03,30,10,40,10.00
2017,03,30,10,41,10.00
2017,03,30,10,42,10.00
2017,03,30,10,43,10.10
2017,03,30,10,44,10.20
2017,03,30,10,45,10.20
2017,03,30,10,46,10.20
2017,03,30,10,47,10.30
2017,03,30,10,48,10.30
2017,03,30,10,49,10.30
2017,03,30,10,50,10.40
2017,03,30,10,51,10.40
2017,03,30,10,52,10.40
2017,03,30,10,53,10.50
2017,03,30,10,54,10.50
2017,03,30,10,55,10.50
2017,03,30,10,56,10.60
2017,03,30,10,57,10.60
2017,03,30,10,58,10.60
2017,03,30,10,59,10.60
2017,03,30,11,00,10.60
2017,03,30,11,01,10.60
2017,03,30,11,02,10.60
2017,03,30,11,03,10.50
2017,03,30,11,04,10.50
2017,03,30,11,05,10.50
2017,03,30,11,06,10.50
2017,03,30,11,07,10.50
2017,03,30,11,08,10.50
2017,03,30,11,09,10.40
2017,03,30,11,10,10.40
2017,03,30,11,11,10.40
2017,03,30,11,12,10.40
2017,03,30,11,13,10.50
2017,03,30,11,14,10.50
2017,03,30,11,15,10.50
2017,03,30,11,16,10.50
2017,03,30,11,17,10.50
2017,03,30,11,18,10.60
2017,03,30,11,19,10.70
2017,03,30,11,20,10.70
2017,03,30,11,21,10.60
2017,03,30,11,22,10.50
2017,03,30,11,23,10.50
2017,03,30,11,24,10.50
2017,03,30,11,25,10.50
2017,03,30,11,26,10.60
2017,03,30,11,27,10.60
2017,03,30,11,28,10.60
2017,03,30,11,29,10.60
2017,03,30,11,30,10.50
2017,03,30,11,31,10.50
2017,03,30,11,32,10.40
2017,03,30,11,33,10.30
2017,03,30,11,34,10.30
2017,03,30,11,35,10.30
2017,03,30,11,36,10.30
2017,03,30,11,37,10.40
2017,03,30,11,38,10.50
2017,03,30,11,39,10.50
2017,03,30,11,40,10.60
2017,03,30,11,41,10.50
2017,03,30,11,42,10.40
2017,03,30,11,43,10.40
2017,03,30,11,44,10.40
2017,03,30,11,45,10.40
2017,03,30,11,46,10.40
2017,03,30,11,47,10.40
2017,03,30,11,48,10.40
2017,03,30,11,49,10.50
2017,03,30,11,50,10.50
2017,03,30,11,51,10.60
2017,03,30,11,52,10.60
2017,03,30,11,53,10.60
2017,03,30,11,54,10.70
2017,03,30,11,55,10.70
2017,03,30,11,56,10.70
2017,03,30,11,57,10.80
2017,03,30,11,58,10.90
2017,03,30,11,59,10.90
2017,03,30,12,00,11.00
2017,03,30,12,01,11.00
2017,03,30,12,02,11.00
2017,03,30,12,03,11.00
2017,03,30,12,04,11.10
2017,03,30,12,05,11.10
2017,03,30,12,06,11.20
2017,03,30,12,07,11.20
2017,03,30,12,08,11.10
2017,03,30,12,09,11.10
2017,03,30,12,10,11.10
2017,03,30,12,11,11.10
2017,03,30,12,12,11.10
2017,03,30,12,13,11.10
2017,03,30,12,14,11.00
2017,03,30,12,15,11.00
2017,03,30,12,16,10.80
2017,03,30,12,17,10.80
2017,03,30,12,18,10.70
2017,03,30,12,19,10.80
2017,03,30,12,20,10.80
2017,03,30,12,21,10.70
2017,03,30,12,22,10.60
2017,03,30,12,23,10.50
2017,03,30,12,24,10.40
2017,03,30,12,25,10.40
2017,03,30,12,26,10.40
2017,03,30,12,27,10.30
2017,03,30,12,28,10.30
2017,03,30,12,29,10.30
2017,03,30,12,30,10.30
2017,03,30,12,31,10.30
2017,03,30,12,32,10.30
2017,03,30,12,33,10.30
2017,03,30,12,34,10.30
2017,03,30,12,35,10.30
2017,03,30,12,36,10.30
2017,03,30,12,37,10.30
2017,03,30,12,38,10.30
2017,03,30,12,39,10.30
2017,03,30,12,40,10.30
2017,03,30,12,41,10.30
2017,03,30,12,42,10.30
2017,03,30,12,43,10.30
2017,03,30,12,44,10.40
2017,03,30,12,45,10.40
2017,03,30,12,46,10.40
2017,03,30,12,47,10.30
2017,03,30,12,48,10.30
2017,03,30,12,49,10.30
2017,03,30,12,50,10.40
2017,03,30,12,51,10.40
2017,03,30,12,52,10.40
2017,03,30,12,53,10.40
2017,03,30,12,54,10.30
2017,03,30,12,55,10.30
2017,03,30,12,56,10.30
2017,03,30,12,57,10.30
2017,03,30,12,58,10.40
2017,03,30,12,59,10.40
2017,03,30,13,00,10.40
2017,03,30,13,01,10.40
2017,03,30,13,02,10.40
2017,03,30,13,03,10.40
2017,03,30,13,04,10.40
2017,03,30,13,05,10.40
2017,03,30,13,06,10.40
2017,03,30,13,07,10.40
2017,03,30,13,08,10.40
2017,03,30,13,09,10.50
2017,03,30,13,10,10.50
2017,03,30,13,11,10.40
2017,03,30,13,12,10.40
2017,03,30,13,13,10.40
2017,03,30,13,14,10.40
2017,03,30,13,15,10.40
2017,03,30,13,16,10.50
2017,03,30,13,17,10.50
2017,03,30,13,18,10.60
2017,03,30,13,19,10.60
2017,03,30,13,20,10.60
2017,03,30,13,21,10.60
2017,03,30,13,22,10.50
2017,03,30,13,23,10.50
2017,03,30,13,24,10.50
2017,03,30,13,25,10.40
2017,03,30,13,26,10.50
2017,03,30,13,27,10.50
2017,03,30,13,28,10.60
2017,03,30,13,29,10.60
2017,03,30,13,30,10.70
2017,03,30,13,31,10.70
2017,03,30,13,32,10.70
2017,03,30,13,33,10.70
2017,03,30,13,34,10.70
2017,03,30,13,35,10.70
2017,03,30,13,36,10.70
2017,03,30,13,37,10.60
2017,03,30,13,38,10.60
2017,03,30,13,39,10.60
2017,03,30,13,40,10.50
2017,03,30,13,41,10.40
2017,03,30,13,42,10.40
2017,03,30,13,43,10.50
2017,03,30,13,44,10.50
2017,03,30,13,45,10.60
2017,03,30,13,46,10.70
2017,03,30,13,47,10.70
2017,03,30,13,48,10.70
2017,03,30,13,49,10.70
2017,03,30,13,50,10.70
2017,03,30,13,51,10.70
2017,03,30,13,52,10.70
2017,03,30,13,53,10.70
2017,03,30,13,54,10.60
2017,03,30,13,55,10.60
2017,03,30,13,56,10.60
2017,03,30,13,57,10.70
2017,03,30,13,58,10.70
2017,03,30,13,59,10.70
2017,03,30,14,00,10.70
2017,03,30,14,01,10.60
2017,03,30,14,02,10.60
2017,03,30,14,03,10.60
2017,03,30,14,04,10.60
2017,03,30,14,05,10.60
2017,03,30,14,06,10.60
2017,03,30,14,07,10.60
2017,03,30,14,08,10.60
2017,03,30,14,09,10.50
2017,03,30,14,10,10.60
2017,03,30,14,11,10.60
2017,03,30,14,12,10.70
2017,03,30,14,13,10.70
2017,03,30,14,14,10.70
2017,03,30,14,15,10.70
2017,03,30,14,16,10.70
2017,03,30,14,17,10.70
2017,03,30,14,18,10.70
2017,03,30,14,19,10.70
2017,03,30,14,20,10.80
2017,03,30,14,21,10.80
2017,03,30,14,22,10.80
2017,03,30,14,23,10.80
2017,03,30,14,24,10.80
2017,03,30,14,25,10.80
2017,03,30,14,26,10.80
2017,03,30,14,27,10.80
2017,03,30,14,28,10.80
2017,03,30,14,29,10.80
2017,03,30,14,30,10.80
2017,03,30,14,31,10.80
2017,03,30,14,32,10.80
2017,03,30,14,33,10.90
2017,03,30,14,34,10.90
2017,03,30,14,35,10.90
2017,03,30,14,36,10.90
2017,03,30,14,37,11.00
2017,03,30,14,38,11.00
2017,03,30,14,39,11.00
2017,03,30,14,40,10.90
2017,03,30,14,41,11.00
2017,03,30,14,42,11.00
2017,03,30,14,43,11.10
2017,03,30,14,44,11.10
2017,03,30,14,45,11.20
2017,03,30,14,46,11.10
2017,03,30,14,47,11.10
2017,03,30,14,48,11.20
2017,03,30,14,49,11.20
2017,03,30,14,50,11.20
2017,03,30,14,51,11.20
2017,03,30,14,52,11.20
2017,03,30,14,53,11.10
2017,03,30,14,54,11.10
2017,03,30,14,55,11.10
2017,03,30,14,56,11.20
2017,03,30,14,57,11.20
2017,03,30,14,58,11.20
2017,03,30,14,59,11.20
2017,03,30,15,00,11.20
2017,03,30,15,01,11.20
2017,03,30,15,02,11.20
2017,03,30,15,03,11.30
2017,03,30,15,04,11.30
2017,03,30,15,05,11.30
2017,03,30,15,06,11.30
2017,03,30,15,07,11.40
2017,03,30,15,08,11.40
2017,03,30,15,09,11.50
2017,03,30,15,10,11.50
2017,03,30,15,11,11.50
2017,03,30,15,12,11.60
2017,03,30,15,13,11.60
2017,03,30,15,14,11.70
2017,03,30,15,15,11.70
2017,03,30,15,16,11.60
2017,03,30,15,17,11.60
2017,03,30,15,18,11.50
2017,03,30,15,19,11.40
2017,03,30,15,20,11.40
2017,03,30,15,21,11.40
2017,03,30,15,22,11.40
2017,03,30,15,23,11.40
2017,03,30,15,24,11.40
2017,03,30,15,25,11.40
2017,03,30,15,26,11.40
2017,03,30,15,27,11.50
2017,03,30,15,28,11.40
2017,03,30,15,29,11.50
2017,03,30,15,30,11.60
2017,03,30,15,31,11.70
2017,03,30,15,32,11.70
2017,03,30,15,33,11.70
2017,03,30,15,34,11.60
2017,03,30,15,35,11.60
2017,03,30,15,36,11.60
2017,03,30,15,37,11.50
2017,03,30,15,38,11.60
2017,03,30,15,39,11.60
2017,03,30,15,40,11.70
2017,03,30,15,41,11.70
2017,03,30,15,42,11.70
2017,03,30,15,43,11.70
2017,03,30,15,44,11.80
2017,03,30,15,45,11.80
2017,03,30,15,46,11.80
2017,03,30,15,47,11.70
2017,03,30,15,48,11.70
2017,03,30,15,49,11.70
2017,03,30,15,50,11.60
2017,03,30,15,51,11.60
2017,03,30,15,52,11.60
2017,03,30,15,53,11.50
2017,03,30,15,54,11.50
2017,03,30,15,55,11.60
2017,03,30,15,56,11.60
2017,03,30,15,57,11.60
2017,03,30,15,58,11.60
2017,03,30,15,59,11.60
2017,03,30,16,00,11.60
2017,03,30,16,01,11.60
2017,03,30,16,02,11.60
2017,03,30,16,03,11.60
2017,03,30,16,04,11.60
2017,03,30,16,05,11.60
2017,03,30,16,06,11.60
2017,03,30,16,07,11.70
2017,03,30,16,08,11.70
2017,03,30,16,09,11.70
2017,03,30,16,10,11.70
2017,03,30,16,11,11.70
2017,03,30,16,12,11.70
2017,03,30,16,13,11.70
2017,03,30,16,14,11.70
2017,03,30,16,15,11.70
2017,03,30,16,16,11.70
2017,03,30,16,17,11.70
2017,03,30,16,18,11.70
2017,03,30,16,19,11.80
2017,03,30,16,20,11.80
2017,03,30,16,21,11.90
2017,03,30,16,22,11.90
2017,03,30,16,23,12.00
2017,03,30,16,24,12.10
2017,03,30,16,25,12.10
2017,03,30,16,26,12.10
2017,03,30,16,27,12.10
2017,03,30,16,28,12.10
2017,03,30,16,29,12.10
2017,03,30,16,30,12.10
2017,03,30,16,31,12.10
2017,03,30,16,32,12.10
2017,03,30,16,33,12.10
2017,03,30,16,34,12.10
2017,03,30,16,35,12.00
2017,03,30,16,36,11.90
2017,03,30,16,37,11.90
2017,03,30,16,38,11.90
2017,03,30,16,39,11.80
2017,03,30,16,40,11.80
2017,03,30,16,41,11.70
2017,03,30,16,42,11.70
2017,03,30,16,43,11.80
2017,03,30,16,44,11.80
2017,03,30,16,45,11.90
2017,03,30,16,46,11.90
2017,03,30,16,47,11.90
2017,03,30,16,48,11.90
2017,03,30,16,49,11.90
2017,03,30,16,50,11.80
2017,03,30,16,51,11.80
2017,03,30,16,52,11.90
2017,03,30,16,53,11.90
2017,03,30,16,54,11.90
2017,03,30,16,55,11.90
2017,03,30,16,56,11.90
2017,03,30,16,57,11.90
2017,03,30,16,58,11.90
2017,03,30,16,59,11.90
2017,03,30,17,00,11.80
2017,03,30,17,01,11.80
2017,03,30,17,02,11.90
2017,03,30,17,03,11.90
2017,03,30,17,04,11.90
2017,03,30,17,05,11.90
2017,03,30,17,06,11.90
2017,03,30,17,07,11.90
2017,03,30,17,08,11.90
2017,03,30,17,09,11.90
2017,03,30,17,10,11.90
2017,03,30,17,11,11.90
2017,03,30,17,12,12.00
2017,03,30,17,13,12.00
2017,03,30,17,14,12.00
2017,03,30,17,15,12.00
2017,03,30,17,16,12.00
2017,03,30,17,17,12.00
2017,03,30,17,18,11.90
2017,03,30,17,19,11.90
2017,03,30,17,20,11.90
2017,03,30,17,21,11.90
2017,03,30,17,22,11.90
2017,03,30,17,23,11.90
2017,03,30,17,24,11.90
2017,03,30,17,25,11.90
2017,03,30,17,26,11.90
2017,03,30,17,27,12.00
2017,03,30,17,28,12.00
2017,03,30,17,29,12.00
2017,03,30,17,30,12.00
2017,03,30,17,31,12.00
2017,03,30,17,32,12.00
2017,03,30,17,33,12.00
2017,03,30,17,34,12.00
2017,03,30,17,35,12.00
2017,03,30,17,36,12.00
2017,03,30,17,37,11.90
2017,03,30,17,38,11.90
2017,03,30,17,39,11.90
2017,03,30,17,40,11.90
2017,03,30,17,41,11.90
2017,03,30,17,42,11.90
2017,03,30,17,43,11.80
2017,03,30,17,44,11.80
2017,03,30,17,45,11.80
2017,03,30,17,46,11.80
2017,03,30,17,47,11.80